User: anonymous   Login
Location: Chiroubles
(46.1812°N, 4.6660°E)
Time: 15:09:29
(UTC+00:00)
Language:

deb Explorer IX - Orbit

View from above orbital plane
View from above orbital plane
View from above satellite
View from above satellite

Ground track
Ground track

The orbit data is extracted from the following two-line orbital elements,

1    85U 61004C   20328.28162294 +.00002415 +00000-0 +51714-3 0  9996
2    85 038.7677 290.3974 0393401 119.4228 244.6378 14.21209110953691
Epoch (UTC): 23 November 2020 06:45:32
Eccentricity: 0.0393401
inclination: 38.7677°
perigee height: 538 km
apogee height: 1104 km
right ascension of ascending node: 290.3974°
argument of perigee: 119.4228°
revolutions per day: 14.21209110
mean anomaly at epoch: 244.6378°
orbit number at epoch: 95369

The dashed part of the orbit path shows where the satellite is in the earth's shadow,  

DLR